QPF
0.00 0.00 0.00 0.00 0.01 0.00 0.00 0.00 0.00 0.01 0.01 0.02 0.02 0.02 0.01 0.00 0.00 0.01 0.06 0.15 0.14 0.11 0.18 0.16 0.12 0.12 0.14 0.09 0.05 0.00 0.02 0.00 0.13 0.14 0.00 0.00 0.00 0.00 0.00 0.00 0.00 0.00 0.00
0.00 0.00 0.00 0.00 0.00 0.00 0.00 0.00 0.00 0.00 0.00 0.00 0.00 0.00 0.02 0.01 0.00 0.00 0.08 0.13 0.17 0.16 0.18 0.23 0.15 0.09 0.08 0.10 0.01 0.02 0.11 0.02 0.18 0.11 0.03 0.03 0.10 0.01 0.00 0.00 0.00 0.00 0.00
0.00 0.00 0.00 0.00 0.00 0.00 0.00 0.00 0.00 0.00 0.00 0.00 0.01 0.00 0.00 0.00 0.01 0.01 0.08 0.07 0.11 0.15 0.23 0.16 0.16 0.10 0.05 0.01 0.00 0.00 0.02 0.06 0.11 0.10 0.10 0.15 0.10 0.03 0.00 0.00 0.01 0.01 0.00
0.00 0.00 0.00 0.00 0.00 0.00 0.00 0.00 0.00 0.00 0.00 0.00 0.00 0.00 0.00 0.00 0.00 0.00 0.02 0.02 0.14 0.29 0.45 0.45 0.20 0.13 0.08 0.08 0.07 0.07 0.07 0.03 0.11 0.19 0.09 0.12 0.12 0.04 0.03 0.02 0.08 0.07 0.07
0.00 0.00 0.00 0.00 0.00 0.00 0.00 0.00 0.00 0.00 0.00 0.01 0.01 0.00 0.00 0.00 0.00 0.00 0.01 0.02 0.02 0.19 0.33 0.55 0.27 0.17 0.17 0.16 0.14 0.16 0.12 0.08 0.03 0.04 0.06 0.04 0.11 0.13 0.20 0.09 0.20 0.06 0.02
0.00 0.00 0.00 0.00 0.00 0.00 0.00 0.00 0.00 0.00 0.01 0.01 0.01 0.01 0.00 0.00 0.00 0.00 0.03 0.04 0.04 0.01 0.04 0.10 0.14 0.19 0.20 0.17 0.11 0.07 0.05 0.10 0.08 0.08 0.11 0.07 0.08 0.11 0.12 0.10 0.12 0.09 0.06
0.00 0.00 0.00 0.00 0.00 0.00 0.00 0.00 0.00 0.01 0.02 0.01 0.00 0.00 0.00 0.00 0.00 0.00 0.00 0.06 0.07 0.03 0.00 0.01 0.03 0.05 0.07 0.06 0.04 0.10 0.09 0.04 0.04 0.09 0.12 0.12 0.11 0.05 0.06 0.07 0.08 0.09 0.11
0.00 0.00 0.00 0.00 0.00 0.00 0.00 0.01 0.01 0.04 0.02 0.00 0.00 0.00 0.00 0.00 0.00 0.00 0.00 0.01 0.01 0.02 0.01 0.00 0.00 0.00 0.00 0.00 0.00 0.00 0.00 0.00 0.00 0.00 0.03 0.04 0.04 0.03 0.01 0.03 0.02 0.04 0.01
0.00 0.00 0.00 0.00 0.01 0.03 0.02 0.00 0.00 0.00 0.00 0.00 0.00 0.00 0.00 0.00 0.00 0.00 0.00 0.00 0.00 0.01 0.00 0.00 0.00 0.00 0.00 0.00 0.00 0.00 0.00 0.00 0.00 0.00 0.00 0.00 0.00 0.00 0.00 0.00 0.00 0.00 0.00
0.00 0.00 0.00 0.00 0.04 0.12 0.18 0.12 0.01 0.00 0.00 0.00 0.00 0.00 0.00 0.00 0.00 0.00 0.00 0.00 0.00 0.00 0.00 0.00 0.00 0.00 0.00 0.00 0.00 0.00 0.00 0.00 0.00 0.00 0.00 0.00 0.00 0.00 0.00 0.00 0.00 0.00 0.00
0.00 0.00 0.00 0.00 0.00 0.01 0.04 0.04 0.01 0.00 0.00 0.00 0.00 0.00 0.00 0.00 0.00 0.00 0.00 0.00 0.00 0.00 0.00 0.00 0.00 0.00 0.00 0.00 0.00 0.00 0.00 0.00 0.00 0.00 0.00 0.00 0.00 0.00 0.00 0.00 0.00 0.00 0.00
0.00 0.00 0.00 0.00 0.00 0.00 0.05 0.02 0.00 0.00 0.01 0.00 0.00 0.00 0.00 0.00 0.00 0.00 0.00 0.00 0.00 0.00 0.00 0.00 0.00 0.00 0.00 0.00 0.00 0.00 0.00 0.00 0.00 0.00 0.00 0.00 0.00 0.00 0.00 0.00 0.00 0.00 0.00
0.00 0.00 0.00 0.04 0.06 0.11 0.13 0.14 0.05 0.02 0.00 0.00 0.01 0.01 0.03 0.02 0.01 0.00 0.00 0.00 0.00 0.00 0.00 0.00 0.00 0.00 0.00 0.00 0.00 0.00 0.00 0.00 0.00 0.00 0.00 0.00 0.00 0.00 0.00 0.00 0.00 0.00 0.00
0.03 0.05 0.05 0.09 0.24 0.42 0.52 0.58 0.40 0.10 0.02 0.00 0.01 0.02 0.03 0.04 0.02 0.01 0.00 0.00 0.00 0.00 0.00 0.00 0.00 0.00 0.00 0.00 0.00 0.00 0.00 0.00 0.00 0.00 0.00 0.00 0.00 0.00 0.00 0.00 0.00 0.00 0.00
0.01 0.02 0.04 0.08 0.14 0.26 0.37 0.42 0.36 0.10 0.05 0.00 0.00 0.02 0.04 0.04 0.03 0.03 0.01 0.01 0.01 0.00 0.00 0.00 0.00 0.00 0.00 0.00 0.00 0.00 0.00 0.00 0.00 0.00 0.00 0.00 0.00 0.00 0.00 0.00 0.00 0.00 0.00
0.01 0.08 0.17 0.26 0.21 0.15 0.13 0.17 0.15 0.08 0.03 0.01 0.00 0.01 0.03 0.05 0.08 0.07 0.02 0.00 0.00 0.00 0.00 0.00 0.00 0.00 0.00 0.00 0.00 0.00 0.00 0.00 0.00 0.00 0.00 0.00 0.00 0.00 0.00 0.00 0.00 0.00 0.00
0.02 0.01 0.02 0.05 0.09 0.09 0.06 0.09 0.06 0.02 0.00 0.00 0.00 0.00 0.00 0.01 0.05 0.09 0.06 0.02 0.00 0.00 0.00 0.00 0.00 0.00 0.00 0.00 0.00 0.00 0.00 0.00 0.00 0.00 0.00 0.00 0.00 0.00 0.00 0.00 0.00 0.00 0.00
0.03 0.07 0.04 0.03 0.02 0.03 0.02 0.02 0.00 0.00 0.00 0.00 0.00 0.00 0.00 0.01 0.03 0.05 0.04 0.01 0.00 0.00 0.00 0.00 0.00 0.00 0.00 0.00 0.00 0.00 0.00 0.00 0.00 0.00 0.00 0.00 0.00 0.00 0.00 0.00 0.00 0.00 0.00
0.01 0.01 0.01 0.01 0.01 0.01 0.01 0.01 0.00 0.00 0.00 0.00 0.00 0.00 0.03 0.07 0.18 0.19 0.12 0.05 0.03 0.01 0.00 0.00 0.00 0.00 0.00 0.00 0.00 0.00 0.00 0.00 0.00 0.00 0.00 0.00 0.00 0.00 0.00 0.00 0.00 0.00 0.00
0.01 0.00 0.01 0.00 0.00 0.00 0.00 0.00 0.00 0.00 0.00 0.00 0.00 0.00 0.01 0.11 0.38 0.40 0.30 0.14 0.09 0.08 0.01 0.00 0.00 0.00 0.00 0.00 0.00 0.00 0.00 0.00 0.00 0.00 0.00 0.00 0.00 0.00 0.00 0.00 0.00 0.00 0.00
0.00 0.00 0.00 0.00 0.00 0.00 0.00 0.00 0.00 0.00 0.00 0.00 0.00 0.01 0.08 0.23 0.42 0.51 0.56 0.45 0.20 0.02 0.00 0.00 0.00 0.00 0.00 0.00 0.00 0.00 0.00 0.00 0.00 0.00 0.00 0.00 0.00 0.00 0.00 0.00 0.00 0.00 0.00
0.00 0.00 0.00 0.00 0.00 0.00 0.00 0.00 0.00 0.00 0.00 0.00 0.00 0.01 0.11 0.14 0.20 0.25 0.31 0.34 0.26 0.14 0.03 0.01 0.01 0.00 0.00 0.00 0.00 0.00 0.00 0.00 0.00 0.00 0.00 0.00 0.00 0.00 0.00 0.00 0.00 0.00 0.00
0.00 0.00 0.00 0.01 0.01 0.01 0.01 0.01 0.01 0.01 0.00 0.00 0.00 0.00 0.01 0.03 0.11 0.17 0.26 0.32 0.31 0.30 0.26 0.20 0.16 0.12 0.08 0.05 0.03 0.01 0.00 0.00 0.00 0.00 0.00 0.00 0.00 0.00 0.00 0.00 0.00 0.00 0.00
0.00 0.00 0.00 0.00 0.00 0.00 0.01 0.01 0.01 0.01 0.01 0.02 0.04 0.02 0.00 0.00 0.00 0.00 0.01 0.01 0.02 0.03 0.06 0.10 0.11 0.09 0.06 0.03 0.01 0.00 0.00 0.00 0.00 0.00 0.00 0.00 0.00 0.00 0.00 0.00 0.00 0.00 0.00
0.00 0.00 0.00 0.00 0.00 0.00 0.00 0.01 0.01 0.01 0.01 0.02 0.06 0.05 0.00 0.00 0.01 0.00 0.00 0.00 0.00 0.00 0.00 0.00 0.00 0.00 0.00 0.00 0.00 0.00 0.00 0.00 0.00 0.00 0.00 0.00 0.00 0.00 0.00 0.00 0.00 0.00 0.00
0.00 0.00 0.00 0.00 0.00 0.00 0.00 0.00 0.00 0.00 0.00 0.01 0.04 0.04 0.02 0.03 0.06 0.02 0.00 0.00 0.00 0.00 0.00 0.00 0.00 0.01 0.02 0.02 0.02 0.01 0.00 0.00 0.00 0.00 0.00 0.00 0.00 0.00 0.00 0.00 0.00 0.00 0.00
MSLP
1006.62 1007.10 1007.65 1008.29 1009.14 1009.69 1010.20 1010.78 1011.23 1011.28 1011.38 1011.67 1011.86 1012.08 1012.14 1012.57 1012.88 1012.74 1012.44 1012.47 1012.61 1012.79 1012.99 1013.00 1012.97 1013.15 1013.77 1013.73 1013.10 1012.99 1013.07 1013.26 1013.63 1013.28 1012.93 1013.80 1014.56 1014.89 1014.82 1015.94 1016.14 1016.24 1016.53
1006.29 1006.92 1007.42 1008.13 1008.85 1009.05 1009.37 1009.92 1010.30 1010.55 1010.80 1011.01 1011.29 1011.42 1011.47 1011.71 1011.97 1012.04 1012.04 1012.29 1012.21 1012.10 1012.25 1012.88 1012.95 1012.97 1013.28 1013.45 1013.03 1012.97 1013.33 1013.23 1013.75 1013.64 1013.41 1013.63 1014.56 1014.90 1014.86 1015.23 1015.26 1015.11 1015.17
1006.13 1006.69 1007.18 1007.66 1008.13 1008.41 1008.88 1009.19 1009.64 1009.97 1010.19 1010.28 1010.64 1010.87 1011.04 1011.10 1011.54 1011.68 1011.87 1012.16 1012.00 1011.95 1012.29 1012.90 1013.09 1013.04 1013.01 1013.04 1012.76 1012.38 1012.63 1013.33 1013.66 1013.42 1013.53 1013.95 1014.34 1014.19 1014.67 1014.73 1014.93 1014.56 1014.39
1005.83 1006.40 1007.16 1007.54 1007.66 1007.94 1008.47 1008.68 1008.97 1009.52 1009.74 1009.76 1009.99 1010.17 1010.46 1010.77 1011.06 1011.53 1011.55 1011.94 1012.20 1012.44 1012.74 1013.20 1013.27 1013.09 1013.23 1013.20 1013.20 1012.86 1012.85 1012.72 1013.47 1013.89 1013.72 1014.03 1014.27 1013.93 1013.93 1013.96 1014.61 1014.82 1014.76
1005.78 1006.15 1006.60 1006.64 1006.94 1007.42 1008.01 1008.48 1008.81 1009.02 1009.32 1009.32 1009.52 1009.80 1010.16 1010.25 1010.43 1011.22 1011.33 1012.02 1012.35 1012.78 1013.01 1013.16 1013.08 1013.32 1013.37 1013.47 1013.52 1013.44 1013.47 1013.45 1013.47 1013.40 1013.62 1013.42 1013.83 1014.00 1014.13 1013.96 1014.34 1014.62 1014.88
1005.27 1005.62 1006.13 1006.50 1006.94 1007.33 1007.78 1008.23 1008.56 1008.81 1008.86 1009.03 1009.13 1009.36 1009.66 1009.71 1010.61 1010.89 1011.12 1011.54 1012.02 1012.53 1012.91 1013.17 1013.45 1013.79 1013.89 1013.83 1013.62 1013.52 1013.41 1013.48 1013.52 1013.13 1013.35 1013.13 1013.29 1013.71 1013.98 1013.72 1014.11 1014.48 1014.53
1004.83 1005.23 1005.80 1006.22 1006.80 1007.21 1007.51 1007.77 1008.10 1008.38 1008.72 1008.84 1008.92 1009.16 1009.49 1009.73 1010.78 1011.09 1011.23 1011.00 1011.33 1011.71 1012.23 1013.01 1013.37 1013.78 1014.19 1014.22 1013.84 1013.83 1013.78 1013.67 1013.82 1013.40 1013.29 1013.31 1013.34 1013.54 1013.87 1014.04 1014.17 1014.45 1014.37
1004.61 1005.18 1005.61 1005.69 1005.97 1006.47 1006.86 1007.32 1007.86 1008.17 1008.46 1008.61 1008.84 1009.16 1009.36 1009.86 1010.72 1011.15 1011.22 1010.54 1010.76 1011.45 1011.79 1012.63 1013.24 1013.60 1013.69 1013.82 1013.84 1013.56 1013.40 1013.60 1013.75 1013.48 1013.38 1013.51 1013.65 1013.65 1013.57 1013.73 1014.10 1014.51 1014.58
1003.77 1004.47 1005.08 1005.61 1005.54 1005.83 1006.42 1006.77 1006.99 1007.50 1008.04 1008.42 1008.80 1009.24 1009.43 1009.79 1010.45 1010.52 1010.89 1010.38 1010.08 1010.84 1011.51 1012.05 1012.60 1013.14 1013.74 1013.98 1013.76 1013.56 1013.60 1013.56 1014.05 1014.22 1014.20 1014.23 1014.16 1014.04 1013.89 1013.88 1013.99 1013.89 1013.54
1003.35 1003.84 1004.54 1005.17 1005.50 1005.67 1005.67 1006.13 1006.79 1007.04 1007.42 1007.65 1008.31 1008.80 1009.24 1009.64 1010.71 1010.75 1010.52 1009.86 1009.98 1010.15 1010.75 1011.61 1012.55 1012.56 1013.67 1013.96 1013.77 1013.64 1013.61 1013.51 1013.70 1013.84 1014.36 1014.57 1014.39 1014.36 1014.52 1014.05 1013.36 1013.32 1013.17
1002.89 1003.42 1004.10 1004.50 1004.99 1005.44 1005.86 1006.14 1006.56 1007.35 1007.19 1007.74 1008.08 1008.49 1009.01 1009.35 1010.06 1010.49 1010.68 1010.18 1009.68 1009.88 1009.93 1010.70 1011.71 1012.97 1013.29 1013.59 1013.77 1013.47 1013.64 1013.47 1013.61 1013.53 1013.31 1013.32 1013.45 1013.56 1013.83 1013.90 1013.72 1013.52 1013.18
1003.03 1003.40 1003.73 1004.26 1004.58 1004.83 1005.60 1005.96 1006.54 1007.13 1007.66 1007.79 1007.98 1008.33 1008.54 1009.35 1009.86 1010.30 1010.35 1010.54 1010.58 1010.09 1009.87 1010.04 1011.17 1012.70 1013.47 1013.62 1013.70 1013.86 1013.92 1013.85 1013.05 1012.92 1012.60 1012.50 1012.62 1012.68 1012.95 1013.50 1013.92 1014.01 1014.21
1003.31 1003.33 1003.47 1003.86 1004.75 1005.51 1006.14 1006.80 1007.77 1007.91 1007.57 1007.69 1007.68 1007.48 1007.84 1008.90 1009.33 1010.58 1010.26 1010.54 1010.67 1010.68 1010.11 1010.45 1011.38 1012.72 1013.43 1013.46 1013.60 1013.80 1013.83 1013.38 1012.55 1012.40 1012.19 1012.12 1012.25 1012.35 1012.91 1014.03 1014.53 1014.84 1015.16
1003.47 1003.63 1003.19 1003.82 1004.84 1005.66 1006.03 1005.47 1007.78 1010.19 1008.33 1007.03 1006.98 1007.13 1007.83 1008.49 1008.90 1009.25 1009.81 1010.81 1011.07 1010.85 1010.94 1010.97 1011.79 1012.48 1012.75 1012.79 1013.24 1013.60 1013.44 1012.87 1012.65 1012.27 1011.97 1012.06 1012.45 1012.88 1013.50 1013.63 1013.95 1014.39 1014.25
1003.69 1003.60 1003.80 1004.16 1004.76 1005.18 1005.55 1006.58 1005.46 1007.73 1007.16 1006.87 1007.12 1007.08 1007.45 1008.07 1008.27 1008.41 1009.04 1009.77 1009.93 1010.04 1009.88 1010.14 1011.33 1011.61 1011.87 1012.18 1012.55 1012.74 1012.96 1013.09 1013.07 1012.51 1012.38 1012.44 1012.74 1012.92 1013.05 1013.74 1013.95 1014.17 1014.32
1003.93 1004.12 1004.21 1004.81 1004.90 1004.74 1005.22 1004.92 1004.90 1006.79 1007.47 1007.28 1007.21 1006.75 1007.23 1007.94 1008.21 1008.48 1009.16 1009.46 1009.56 1009.62 1009.69 1009.60 1010.09 1010.42 1010.86 1011.39 1011.94 1012.29 1012.83 1013.01 1013.00 1012.84 1012.62 1012.42 1012.55 1013.02 1013.27 1013.39 1013.51 1013.65 1013.84
1004.06 1003.87 1004.10 1004.80 1005.30 1005.91 1004.20 1004.55 1005.64 1006.29 1006.72 1007.04 1006.77 1007.01 1007.26 1007.60 1008.20 1008.07 1008.93 1009.64 1009.94 1009.61 1009.22 1009.00 1009.15 1009.47 1009.84 1010.53 1010.93 1011.56 1012.05 1012.71 1013.00 1013.00 1012.99 1013.05 1013.07 1012.94 1013.03 1013.20 1013.34 1013.53 1013.58
1003.80 1004.31 1004.29 1004.57 1004.54 1004.78 1004.33 1004.82 1005.19 1005.07 1005.29 1005.31 1006.30 1006.95 1007.35 1007.66 1007.92 1008.02 1008.65 1009.57 1010.24 1009.77 1008.83 1008.43 1008.61 1008.93 1009.09 1009.66 1010.17 1010.70 1011.33 1011.98 1012.29 1012.86 1012.81 1012.45 1012.26 1012.34 1012.39 1012.63 1012.86 1013.02 1012.97
1003.86 1003.83 1003.96 1004.15 1004.21 1004.37 1004.23 1004.31 1004.74 1005.16 1005.35 1005.73 1006.04 1007.01 1007.40 1007.68 1008.05 1008.34 1008.42 1008.41 1008.44 1008.59 1008.78 1008.75 1008.78 1008.77 1008.96 1009.24 1009.61 1009.90 1010.12 1010.27 1010.52 1010.88 1011.26 1011.38 1011.38 1011.68 1011.64 1011.80 1012.08 1012.61 1012.76
1004.02 1004.44 1003.96 1004.13 1004.29 1004.16 1004.55 1005.11 1005.18 1005.37 1005.58 1005.81 1006.13 1006.73 1007.51 1008.05 1008.11 1008.49 1008.65 1008.48 1008.41 1008.21 1008.25 1008.88 1008.35 1008.23 1008.40 1009.04 1009.32 1009.56 1009.80 1009.97 1010.04 1010.37 1010.61 1010.85 1010.96 1010.93 1011.05 1011.28 1011.60 1011.55 1012.02
1003.62 1004.46 1004.26 1004.32 1004.26 1004.26 1004.88 1005.30 1005.17 1004.87 1005.41 1005.79 1005.96 1006.70 1007.17 1007.49 1007.68 1007.75 1008.32 1008.22 1008.45 1008.15 1008.18 1008.11 1008.18 1008.51 1009.03 1009.47 1009.40 1009.50 1009.64 1009.55 1009.62 1009.79 1010.15 1010.42 1010.59 1010.70 1010.77 1010.73 1010.94 1011.31 1011.34
1004.07 1004.21 1004.16 1004.13 1004.18 1004.15 1004.68 1004.99 1004.81 1005.05 1005.30 1005.66 1006.05 1006.94 1007.17 1007.20 1007.45 1007.60 1008.18 1007.90 1008.23 1007.98 1008.63 1009.02 1009.31 1009.85 1010.34 1010.62 1010.46 1010.43 1010.26 1009.66 1009.23 1009.44 1009.73 1009.88 1010.05 1010.36 1010.51 1010.65 1010.74 1010.94 1010.97
1003.73 1003.60 1003.38 1003.45 1003.60 1003.91 1004.20 1004.45 1004.82 1004.97 1004.99 1004.87 1005.38 1006.22 1006.86 1006.90 1006.98 1007.27 1007.26 1007.59 1007.68 1007.95 1008.25 1008.71 1009.10 1009.58 1009.95 1010.46 1010.85 1010.33 1010.14 1009.68 1009.34 1009.08 1009.24 1009.46 1009.58 1009.76 1009.86 1010.08 1010.25 1010.48 1010.51
1003.47 1003.27 1003.46 1003.77 1003.77 1003.60 1003.71 1004.36 1004.67 1004.78 1004.87 1004.67 1004.57 1005.34 1005.73 1005.99 1006.09 1006.45 1006.49 1006.82 1007.40 1007.93 1008.22 1008.36 1008.71 1009.07 1009.39 1010.08 1010.02 1009.96 1009.80 1009.02 1008.79 1008.76 1008.92 1008.91 1009.13 1009.43 1009.56 1009.54 1009.71 1009.89 1010.19
1003.51 1003.65 1003.77 1003.88 1003.83 1004.05 1004.54 1004.40 1004.55 1004.50 1004.38 1004.65 1004.80 1005.18 1005.41 1005.59 1005.07 1005.12 1005.65 1006.06 1006.41 1007.15 1007.01 1007.28 1007.57 1008.07 1008.51 1008.41 1008.23 1008.39 1008.92 1008.94 1008.70 1008.59 1008.40 1008.72 1008.98 1009.02 1009.13 1009.29 1009.27 1009.46 1009.72
1003.83 1003.88 1003.80 1003.89 1003.94 1003.73 1003.40 1003.36 1003.37 1003.63 1004.08 1004.49 1004.75 1005.02 1005.19 1005.30 1004.93 1005.11 1005.44 1005.85 1006.37 1006.43 1006.74 1006.75 1006.93 1007.37 1007.72 1007.68 1007.81 1008.01 1008.40 1008.49 1008.57 1008.93 1008.28 1008.34 1008.72 1008.72 1008.56 1008.56 1008.77 1008.90 1009.25
Thickness
5809 5804 5798 5792 5786 5781 5777 5772 5770 5771 5771 5767 5766 5762 5761 5757 5755 5757 5761 5763 5762 5763 5764 5766 5768 5771 5765 5767 5775 5778 5776 5775 5762 5772 5784 5781 5775 5773 5775 5768 5767 5768 5768
5808 5801 5796 5791 5785 5783 5782 5778 5777 5774 5773 5770 5768 5765 5763 5760 5758 5758 5758 5759 5760 5762 5764 5761 5763 5768 5765 5766 5772 5772 5769 5774 5766 5762 5773 5776 5769 5770 5772 5771 5771 5773 5775
5807 5801 5796 5791 5787 5785 5783 5782 5780 5777 5774 5775 5771 5768 5765 5763 5759 5759 5758 5755 5758 5760 5759 5755 5756 5758 5759 5765 5769 5773 5773 5770 5768 5769 5768 5771 5769 5774 5770 5773 5772 5775 5778
5807 5800 5792 5789 5788 5787 5784 5783 5781 5777 5775 5775 5773 5771 5769 5766 5762 5758 5758 5754 5753 5751 5749 5746 5746 5751 5752 5757 5760 5765 5768 5771 5766 5762 5765 5764 5764 5771 5774 5772 5766 5770 5771
5804 5799 5795 5797 5794 5791 5786 5782 5780 5778 5775 5776 5775 5772 5769 5767 5765 5757 5756 5749 5746 5741 5741 5738 5740 5742 5745 5747 5752 5756 5758 5760 5761 5762 5761 5766 5762 5762 5761 5769 5765 5765 5767
5806 5801 5798 5795 5791 5787 5785 5781 5778 5776 5776 5775 5775 5773 5769 5770 5760 5758 5756 5750 5747 5740 5735 5732 5734 5734 5734 5739 5744 5751 5756 5754 5754 5759 5758 5762 5764 5764 5764 5767 5764 5759 5755
5808 5805 5800 5796 5790 5786 5784 5782 5777 5775 5773 5772 5773 5772 5768 5767 5756 5754 5753 5756 5750 5746 5742 5734 5731 5731 5732 5734 5739 5742 5745 5749 5752 5757 5756 5758 5761 5764 5763 5759 5760 5757 5757
5806 5802 5800 5799 5796 5791 5787 5782 5776 5774 5771 5771 5770 5769 5769 5765 5755 5751 5750 5758 5754 5747 5744 5737 5731 5731 5734 5736 5738 5742 5746 5747 5750 5754 5756 5757 5759 5761 5762 5760 5758 5754 5755
5810 5805 5800 5797 5797 5793 5785 5782 5781 5775 5770 5767 5765 5763 5762 5761 5755 5754 5750 5754 5755 5748 5744 5741 5737 5733 5728 5728 5732 5735 5736 5739 5738 5740 5742 5745 5748 5750 5752 5753 5748 5748 5749
5809 5806 5802 5797 5793 5790 5791 5785 5777 5775 5769 5767 5761 5759 5757 5755 5746 5747 5750 5754 5748 5749 5746 5740 5731 5735 5724 5723 5728 5729 5728 5732 5734 5736 5735 5736 5738 5740 5741 5744 5749 5742 5745
5810 5805 5799 5796 5790 5785 5781 5778 5772 5762 5767 5760 5755 5753 5750 5749 5743 5740 5741 5747 5749 5746 5746 5740 5735 5722 5721 5720 5720 5725 5725 5728 5729 5733 5737 5738 5738 5738 5737 5736 5738 5739 5739
5801 5797 5793 5791 5788 5784 5777 5774 5768 5759 5750 5748 5746 5741 5742 5738 5735 5730 5732 5733 5735 5739 5740 5742 5734 5718 5713 5713 5715 5714 5714 5715 5726 5726 5730 5731 5731 5733 5735 5731 5727 5726 5725
5788 5787 5785 5785 5775 5768 5763 5755 5743 5743 5745 5742 5739 5740 5737 5728 5728 5717 5720 5722 5722 5726 5733 5730 5721 5710 5705 5707 5707 5706 5705 5712 5718 5719 5720 5722 5724 5727 5724 5715 5711 5709 5707
5772 5768 5762 5765 5760 5754 5749 5750 5733 5705 5725 5739 5737 5733 5729 5721 5721 5721 5717 5708 5709 5714 5714 5719 5712 5706 5705 5706 5702 5699 5703 5708 5708 5710 5711 5713 5713 5710 5705 5706 5703 5700 5701
5759 5764 5760 5754 5750 5744 5735 5722 5728 5719 5728 5733 5729 5729 5723 5716 5716 5719 5716 5712 5713 5712 5715 5715 5705 5704 5702 5700 5698 5697 5696 5695 5694 5698 5698 5697 5696 5696 5697 5693 5692 5690 5685
5744 5742 5743 5734 5734 5741 5727 5728 5733 5716 5711 5716 5719 5725 5722 5713 5708 5705 5701 5700 5702 5703 5704 5707 5704 5703 5700 5696 5691 5689 5685 5684 5684 5686 5687 5689 5688 5683 5682 5683 5683 5681 5676
5727 5728 5730 5726 5722 5710 5730 5726 5718 5717 5711 5710 5713 5712 5709 5707 5697 5699 5691 5686 5685 5691 5698 5701 5701 5700 5698 5694 5692 5686 5681 5676 5674 5673 5674 5672 5671 5673 5672 5672 5670 5667 5665
5716 5708 5712 5714 5717 5717 5725 5720 5719 5722 5720 5721 5710 5704 5698 5694 5691 5691 5685 5677 5676 5681 5689 5692 5693 5693 5694 5689 5686 5681 5677 5672 5668 5663 5663 5666 5668 5666 5664 5662 5660 5658 5659
5712 5713 5715 5713 5716 5717 5721 5719 5716 5711 5710 5707 5705 5696 5691 5685 5681 5677 5676 5683 5682 5678 5676 5678 5680 5680 5680 5680 5677 5676 5674 5673 5671 5668 5664 5663 5663 5659 5660 5659 5656 5648 5647
5709 5703 5711 5709 5709 5712 5707 5699 5699 5698 5697 5697 5695 5691 5680 5675 5675 5666 5664 5668 5668 5668 5667 5663 5669 5673 5673 5667 5667 5666 5664 5662 5662 5659 5656 5655 5655 5656 5653 5651 5648 5649 5646
5708 5697 5700 5702 5703 5703 5695 5690 5692 5696 5689 5686 5687 5680 5672 5671 5667 5662 5652 5654 5651 5656 5655 5656 5659 5657 5653 5651 5654 5654 5652 5653 5653 5651 5647 5645 5644 5642 5643 5643 5642 5640 5640
5694 5693 5694 5695 5697 5697 5691 5688 5689 5686 5682 5678 5676 5667 5660 5662 5657 5653 5647 5649 5643 5644 5638 5637 5636 5634 5632 5631 5632 5632 5632 5638 5641 5638 5636 5635 5634 5631 5631 5630 5630 5629 5629
5695 5695 5698 5698 5696 5690 5689 5686 5681 5679 5678 5679 5675 5668 5658 5656 5651 5644 5643 5642 5638 5635 5632 5629 5626 5622 5620 5617 5613 5619 5620 5623 5626 5628 5626 5625 5625 5624 5623 5621 5621 5619 5619
5689 5692 5690 5685 5684 5685 5683 5675 5672 5669 5669 5671 5670 5662 5658 5655 5649 5644 5644 5640 5634 5627 5622 5622 5619 5615 5612 5605 5604 5605 5608 5615 5616 5616 5616 5618 5616 5614 5614 5614 5612 5611 5609
5681 5679 5677 5675 5674 5670 5664 5665 5664 5663 5664 5660 5657 5652 5648 5644 5648 5645 5641 5635 5631 5623 5623 5620 5618 5613 5607 5608 5609 5607 5604 5606 5608 5608 5611 5609 5605 5605 5604 5602 5602 5601 5599
5672 5671 5670 5668 5666 5666 5668 5666 5664 5660 5653 5648 5645 5642 5638 5637 5637 5633 5628 5623 5619 5618 5615 5613 5611 5607 5604 5604 5603 5601 5599 5600 5600 5597 5599 5598 5593 5593 5594 5593 5591 5591 5588